When you browse on this site, cookies collect data to enhance your experience and personalize the content and advertising you see.
Visit our Privacy Policy to learn more. By continuing to use the site, you agree to this use of cookies and data.
  • In Lithuania
  • List of Countries
  • For 7 days
  • Water Temperature
  • Weather Map
  • Weather Widgets
  • user-avatar
    Login

    Hourly Weather Annaba

    Today, 6 April, Monday

    Time Temperature Precipitation Wind Pressure Humidity
    00:00 +11°C° 0 mm 1 mps 763 mmHg 83%
    01:00 +11°C° 0 mm 1 mps 764 mmHg 84%
    02:00 +11°C° 0 mm 1 mps 763 mmHg 83%
    03:00 +11°C° 0 mm 1 mps 763 mmHg 83%
    04:00 +10°C° 0 mm 1 mps 762 mmHg 82%
    05:00 +11°C° 0 mm 1 mps 763 mmHg 81%
    06:00 +11°C° 0 mm 1 mps 763 mmHg 81%
    07:00 +12°C° 0 mm 1 mps 764 mmHg 80%
    08:00 +14°C° 0 mm 1 mps 764 mmHg 73%
    09:00 +16°C° 0 mm 1 mps 764 mmHg 66%
    10:00 +18°C° 0 mm 1 mps 764 mmHg 59%
    11:00 +18°C° 0 mm 2 mps 764 mmHg 56%
    12:00 +19°C° 0 mm 2 mps 764 mmHg 54%
    13:00 +19°C° 0 mm 3 mps 765 mmHg 51%
    14:00 +19°C° 0 mm 3 mps 764 mmHg 53%
    15:00 +18°C° 0 mm 4 mps 764 mmHg 54%
    16:00 +18°C° 0 mm 4 mps 764 mmHg 55%
    17:00 +17°C° 0 mm 3 mps 764 mmHg 62%
    18:00 +14°C° 0 mm 3 mps 765 mmHg 69%
    19:00 +13°C° 0 mm 2 mps 765 mmHg 76%
    20:00 +13°C° 0 mm 2 mps 766 mmHg 78%
    21:00 +12°C° 0 mm 2 mps 767 mmHg 80%
    22:00 +12°C° 0 mm 1 mps 767 mmHg 82%
    23:00 +11°C° 0 mm 1 mps 767 mmHg 82%

    Tomorrow, 7 April, Tuesday

    Time Temperature Precipitation Wind Pressure Humidity
    00:00 +11°C° 0 mm 1 mps 767 mmHg 82%
    01:00 +11°C° 0 mm 1 mps 767 mmHg 82%
    02:00 +10°C° 0 mm 1 mps 767 mmHg 82%
    03:00 +10°C° 0 mm 1 mps 766 mmHg 82%
    04:00 +10°C° 0 mm 1 mps 766 mmHg 82%
    05:00 +10°C° 0 mm 1 mps 766 mmHg 82%
    06:00 +11°C° 0 mm 1 mps 766 mmHg 81%
    07:00 +11°C° 0 mm 1 mps 767 mmHg 81%
    08:00 +13°C° 0 mm 1 mps 767 mmHg 74%
    09:00 +15°C° 0 mm 1 mps 767 mmHg 68%
    10:00 +17°C° 0 mm 2 mps 767 mmHg 61%
    11:00 +18°C° 0 mm 2 mps 767 mmHg 59%
    12:00 +19°C° 0 mm 2 mps 766 mmHg 57%
    13:00 +19°C° 0 mm 3 mps 766 mmHg 55%
    14:00 +19°C° 0 mm 3 mps 766 mmHg 57%
    15:00 +19°C° 0 mm 4 mps 765 mmHg 60%
    16:00 +18°C° 0 mm 4 mps 765 mmHg 62%
    17:00 +17°C° 0 mm 4 mps 765 mmHg 70%
    18:00 +15°C° 0 mm 4 mps 765 mmHg 77%
    19:00 +13°C° 0 mm 4 mps 765 mmHg 84%
    20:00 +13°C° 0 mm 3 mps 766 mmHg 86%
    21:00 +12°C° 0 mm 3 mps 766 mmHg 87%
    22:00 +12°C° 0 mm 3 mps 767 mmHg 88%
    23:00 +13°C° 0 mm 2 mps 767 mmHg 88%

    Day after tomorrow, 8 April, Wednesday

    Time Temperature Precipitation Wind Pressure Humidity
    00:00 +12°C° 0 mm 2 mps 766 mmHg 88%
    01:00 +12°C° 0 mm 2 mps 766 mmHg 89%
    02:00 +12°C° 0 mm 2 mps 766 mmHg 88%
    03:00 +11°C° 0 mm 1 mps 766 mmHg 88%
    04:00 +11°C° 0 mm 1 mps 766 mmHg 87%
    05:00 +12°C° 0 mm 1 mps 766 mmHg 87%
    06:00 +12°C° 0 mm 1 mps 766 mmHg 86%
    07:00 +12°C° 0 mm 1 mps 766 mmHg 85%
    08:00 +14°C° 0 mm 1 mps 766 mmHg 78%
    09:00 +16°C° 0 mm 1 mps 766 mmHg 72%
    10:00 +19°C° 0 mm 1 mps 766 mmHg 65%
    11:00 +18°C° 0 mm 2 mps 766 mmHg 63%
    12:00 +19°C° 0 mm 3 mps 766 mmHg 62%
    13:00 +20°C° 0 mm 4 mps 765 mmHg 60%
    14:00 +19°C° 0 mm 4 mps 765 mmHg 63%
    15:00 +19°C° 0 mm 4 mps 765 mmHg 66%
    16:00 +19°C° 0 mm 5 mps 765 mmHg 68%
    17:00 +17°C° 0 mm 4 mps 765 mmHg 74%
    18:00 +15°C° 0 mm 4 mps 765 mmHg 80%
    19:00 +14°C° 0 mm 3 mps 765 mmHg 85%
    20:00 +13°C° 0 mm 3 mps 765 mmHg 86%
    21:00 +13°C° 0 mm 3 mps 766 mmHg 88%
    22:00 +13°C° 0 mm 2 mps 766 mmHg 89%
    23:00 +13°C° 0 mm 2 mps 766 mmHg 89%

    9 April, Thursday

    Time Temperature Precipitation Wind Pressure Humidity
    00:00 +13°C° 0 mm 2 mps 766 mmHg 89%
    01:00 +12°C° 0 mm 1 mps 766 mmHg 90%
    02:00 +12°C° 0 mm 1 mps 765 mmHg 90%
    03:00 +12°C° 0 mm 1 mps 765 mmHg 91%
    04:00 +12°C° 0 mm 1 mps 765 mmHg 91%
    05:00 +12°C° 0 mm 1 mps 765 mmHg 91%
    06:00 +13°C° 0 mm 1 mps 765 mmHg 90%
    07:00 +13°C° 0 mm 1 mps 765 mmHg 90%
    08:00 +15°C° 0 mm 1 mps 765 mmHg 84%
    09:00 +18°C° 0 mm 1 mps 765 mmHg 78%
    10:00 +19°C° 0 mm 1 mps 766 mmHg 72%
    11:00 +19°C° 0 mm 2 mps 765 mmHg 69%
    12:00 +19°C° 0 mm 2 mps 765 mmHg 66%
    13:00 +20°C° 0 mm 3 mps 765 mmHg 63%
    14:00 +20°C° 0 mm 3 mps 764 mmHg 64%
    15:00 +19°C° 0 mm 4 mps 764 mmHg 66%
    16:00 +19°C° 0 mm 4 mps 764 mmHg 67%
    17:00 +18°C° 0 mm 4 mps 764 mmHg 74%
    18:00 +15°C° 0 mm 4 mps 764 mmHg 81%
    19:00 +14°C° 0 mm 3 mps 764 mmHg 88%
    20:00 +13°C° 0 mm 3 mps 764 mmHg 89%
    21:00 +14°C° 0 mm 2 mps 765 mmHg 89%
    22:00 +14°C° 0 mm 2 mps 765 mmHg 90%
    23:00 +13°C° 0 mm 2 mps 765 mmHg 90%

    10 April, Friday

    Time Temperature Precipitation Wind Pressure Humidity
    00:00 +13°C° 0 mm 2 mps 765 mmHg 91%
    01:00 +13°C° 0 mm 2 mps 764 mmHg 91%
    02:00 +13°C° 0 mm 1 mps 764 mmHg 90%
    03:00 +12°C° 0 mm 1 mps 764 mmHg 90%
    04:00 +12°C° 0 mm 1 mps 764 mmHg 89%
    05:00 +13°C° 0 mm 1 mps 764 mmHg 88%
    06:00 +13°C° 0 mm 1 mps 764 mmHg 87%
    07:00 +14°C° 0 mm 1 mps 764 mmHg 86%
    08:00 +16°C° 0 mm 1 mps 764 mmHg 79%
    09:00 +19°C° 0 mm 1 mps 764 mmHg 72%
    10:00 +21°C° 0 mm 1 mps 764 mmHg 65%
    11:00 +20°C° 0 mm 2 mps 764 mmHg 64%
    12:00 +21°C° 0 mm 3 mps 763 mmHg 62%
    13:00 +22°C° 0 mm 3 mps 763 mmHg 60%
    14:00 +21°C° 0.1 mm 3 mps 763 mmHg 62%
    15:00 +21°C° 0.1 mm 4 mps 762 mmHg 64%
    16:00 +21°C° 0.1 mm 4 mps 762 mmHg 65%
    17:00 +19°C° 0 mm 3 mps 762 mmHg 71%
    18:00 +18°C° 0 mm 3 mps 762 mmHg 77%
    19:00 +17°C° 0 mm 3 mps 762 mmHg 82%
    20:00 +16°C° 0 mm 2 mps 763 mmHg 83%
    21:00 +16°C° 0 mm 2 mps 763 mmHg 84%
    22:00 +15°C° 0 mm 1 mps 763 mmHg 85%
    23:00 +15°C° 0 mm 1 mps 763 mmHg 84%

    11 April, Saturday

    Time Temperature Precipitation Wind Pressure Humidity
    00:00 +15°C° 0 mm 1 mps 763 mmHg 84%
    01:00 +15°C° 0 mm 1 mps 763 mmHg 84%
    02:00 +15°C° 0 mm 1 mps 763 mmHg 84%
    03:00 +15°C° 0 mm 1 mps 763 mmHg 84%
    04:00 +14°C° 0 mm 1 mps 763 mmHg 85%
    05:00 +15°C° 0 mm 1 mps 763 mmHg 83%
    06:00 +15°C° 0 mm 1 mps 763 mmHg 82%
    07:00 +16°C° 0 mm 1 mps 763 mmHg 81%
    08:00 +19°C° 0 mm 1 mps 763 mmHg 75%
    09:00 +21°C° 0 mm 1 mps 763 mmHg 69%
    10:00 +21°C° 0 mm 0 mps 763 mmHg 63%
    11:00 +23°C° 0 mm 1 mps 763 mmHg 63%
    12:00 +23°C° 0 mm 2 mps 763 mmHg 62%
    13:00 +24°C° 0 mm 3 mps 763 mmHg 61%
    14:00 +22°C° 0.2 mm 3 mps 762 mmHg 63%
    15:00 +22°C° 0.2 mm 3 mps 762 mmHg 65%
    16:00 +21°C° 0.2 mm 3 mps 761 mmHg 66%
    17:00 +20°C° 0 mm 3 mps 762 mmHg 72%
    18:00 +18°C° 0 mm 2 mps 762 mmHg 78%
    19:00 +17°C° 0 mm 2 mps 762 mmHg 83%
    20:00 +16°C° 0 mm 1 mps 762 mmHg 84%
    21:00 +16°C° 0 mm 1 mps 763 mmHg 85%
    22:00 +16°C° 0 mm 1 mps 763 mmHg 86%
    23:00 +16°C° 0 mm 1 mps 763 mmHg 86%
    Show more